Lewistown, MT

1:34 PM MDT on October 18, 2017 (GMT -0600)
Lewistown Municipal

Weather History for KLWT - October, 2011

Change the Weather History Date:

Saturday, October 29, 2011

  Actual Average Record
Temperature  
Mean Temperature 40 °F 39 °F  
Max Temperature 52 °F 51 °F 79 °F (1968)
Min Temperature 27 °F 27 °F -7 °F (1991)
Degree Days  
Heating Degree Days 25 26  
Month to date heating degree days 527 608  
Since 1 July heating degree days 793 1085  
Cooling Degree Days 0 0  
Month to date cooling degree days 5 0  
Year to date cooling degree days 215 210  
Moisture  
Dew Point 20 °F    
Average Humidity 45    
Maximum Humidity 70    
Minimum Humidity 19    
Precipitation  
Precipitation T in 0.03 in 0.72 in (1929)
Month to date precipitation 2.58 1.08  
Year to date precipitation 21.27 15.43  
Snow  
Snow 0.00 in - - ()
Snow Depth 0.00 in    
Sea Level Pressure  
Sea Level Pressure 29.94 in    
Wind  
Wind Speed 15 mph (WNW)    
Max Wind Speed 38 mph    
Max Gust Speed 48 mph    
Visibility 10 miles    
Events      
T = Trace of Precipitation, MM = Missing Value Source: NWS Daily Summary

Daily Weather History Graph

Daily Weather History Graph

Search for Another Location

Airport or City:

Trip Planner

Search our weather history database for the weather conditions in past years. The results will help you decide how hot, cold, wet, or windy it might be!

Date:

Astronomy

Oct. 29, 2011 Rise Set
Actual Time 7:55 AM MDT 6:06 PM MDT
Civil Twilight 7:24 AM MDT 6:38 PM MDT
Nautical Twilight 6:48 AM MDT 7:13 PM MDT
Astronomical Twilight 6:13 AM MDT 7:49 PM MDT
Moon 11:34 AM MDT (10/29) 8:20 PM MDT (10/29)
Length of Visible Light 11h 13m
Length of Day
10h 10m
Waxing Crescent, 12% of the Moon is Illuminated
Oct 29
Waxing Crescent
Nov 2
First Quarter
Nov 10
Full
Nov 18
Last Quarter
Nov 24
New

Hourly Weather History & Observations

Time (MDT) Temp. Windchill Dew Point Humidity Pressure Visibility Wind Dir Wind Speed Gust Speed Precip Events Conditions
12:54 AM 52.0 °F - 10.9 °F 19% 29.73 in 10.0 mi SW 19.6 mph 27.6 mph N/A   Clear
1:54 AM 51.1 °F - 12.0 °F 21% 29.71 in 10.0 mi SW 20.7 mph - N/A   Scattered Clouds
2:54 AM 51.1 °F - 10.9 °F 20% 29.71 in 10.0 mi WSW 23.0 mph 34.5 mph N/A   Scattered Clouds
4:54 AM 48.0 °F - 14.0 °F 26% 29.75 in 10.0 mi WSW 17.3 mph 25.3 mph N/A   Mostly Cloudy
5:54 AM 46.0 °F 39.6 °F 21.9 °F 39% 29.75 in 10.0 mi West 15.0 mph - N/A   Mostly Cloudy
6:54 AM 44.1 °F 37.4 °F 23.0 °F 43% 29.77 in 10.0 mi West 13.8 mph - N/A   Overcast
7:54 AM 41.0 °F 35.8 °F 27.0 °F 57% 29.81 in 10.0 mi WNW 8.1 mph - N/A   Overcast
9:54 AM 46.0 °F 37.2 °F 25.0 °F 44% 29.88 in 10.0 mi WNW 26.5 mph 34.5 mph N/A   Overcast
10:54 AM 39.9 °F 31.8 °F 30.9 °F 70% 29.92 in 10.0 mi NNW 15.0 mph 23.0 mph 0.00 in   Overcast
11:54 AM 46.9 °F - 27.0 °F 46% 29.93 in 10.0 mi WNW 25.3 mph 31.1 mph 0.00 in   Overcast
12:54 PM 45.0 °F 35.8 °F 21.0 °F 39% 29.96 in 10.0 mi NW 26.5 mph 35.7 mph 0.00 in   Overcast
1:54 PM 46.0 °F 37.4 °F 21.0 °F 37% 29.96 in 10.0 mi WNW 25.3 mph 38.0 mph N/A   Overcast
2:54 PM 46.0 °F 39.0 °F 21.9 °F 39% 29.97 in 10.0 mi NNW 17.3 mph 26.5 mph N/A   Mostly Cloudy
3:54 PM 46.0 °F 39.0 °F 21.0 °F 37% 30.00 in 10.0 mi NNW 17.3 mph 28.8 mph N/A   Mostly Cloudy
5:54 PM 43.0 °F 38.2 °F 19.9 °F 40% 30.05 in 10.0 mi NW 8.1 mph 18.4 mph N/A   Mostly Cloudy
6:54 PM 34.0 °F 27.2 °F 21.0 °F 59% 30.11 in 10.0 mi WSW 8.1 mph - N/A   Scattered Clouds
7:54 PM 34.0 °F 26.0 °F 19.9 °F 56% 30.12 in 10.0 mi West 10.4 mph - N/A   Clear
8:54 PM 35.1 °F 30.1 °F 19.9 °F 54% 30.12 in 10.0 mi WNW 5.8 mph - N/A   Clear
9:54 PM 30.0 °F 22.4 °F 19.9 °F 66% 30.12 in 10.0 mi West 8.1 mph - N/A   Clear
10:54 PM 34.0 °F 29.8 °F 19.0 °F 54% 30.14 in 10.0 mi WNW 4.6 mph - N/A   Clear
11:54 PM 30.0 °F 21.7 °F 19.9 °F 66% 30.13 in 10.0 mi WSW 9.2 mph - N/A   Clear